TimeEST,TemperatureF,Dew PointF,Humidity,Sea Level PressureIn,VisibilityMPH,Wind Direction,Wind SpeedMPH,Gust SpeedMPH,PrecipitationIn,Events,Conditions,WindDirDegrees,DateUTC
12:15 AM,64.4,50.0,59,30.23,10.0,ESE,9.2,-,N/A,,Scattered Clouds,120,2013-02-19 05:15:00
12:35 AM,64.4,50.0,59,30.23,10.0,ESE,10.4,-,N/A,,Scattered Clouds,110,2013-02-19 05:35:00
12:55 AM,64.4,50.0,59,30.22,10.0,ESE,11.5,-,N/A,,Scattered Clouds,120,2013-02-19 05:55:00
1:15 AM,64.4,50.0,59,30.23,10.0,ESE,9.2,-,N/A,,Mostly Cloudy,110,2013-02-19 06:15:00
1:35 AM,66.2,50.0,56,30.22,10.0,ESE,13.8,17.3,N/A,,Overcast,120,2013-02-19 06:35:00
1:55 AM,66.2,50.0,56,30.21,10.0,ESE,10.4,-,N/A,,Overcast,120,2013-02-19 06:55:00
2:15 AM,66.2,51.8,60,30.20,10.0,ESE,11.5,-,N/A,,Mostly Cloudy,120,2013-02-19 07:15:00
2:35 AM,66.2,51.8,60,30.20,10.0,ESE,12.7,-,N/A,,Mostly Cloudy,120,2013-02-19 07:35:00
2:55 AM,66.2,53.6,64,30.19,10.0,SE,11.5,-,N/A,,Overcast,130,2013-02-19 07:55:00
3:15 AM,66.2,53.6,64,30.18,10.0,SE,13.8,20.7,N/A,,Overcast,130,2013-02-19 08:15:00
3:35 AM,66.2,53.6,64,30.18,10.0,SE,11.5,-,N/A,,Overcast,130,2013-02-19 08:35:00
3:55 AM,68.0,55.4,64,30.18,10.0,SE,11.5,17.3,N/A,,Mostly Cloudy,130,2013-02-19 08:55:00
4:15 AM,68.0,55.4,64,30.18,10.0,SE,10.4,-,N/A,,Overcast,140,2013-02-19 09:15:00
4:35 AM,68.0,57.2,68,30.18,10.0,SSE,8.1,-,N/A,,Overcast,150,2013-02-19 09:35:00
4:55 AM,66.2,57.2,73,30.18,10.0,SE,6.9,-,N/A,,Overcast,140,2013-02-19 09:55:00
5:15 AM,66.2,59.0,78,30.18,10.0,South,4.6,-,N/A,,Mostly Cloudy,170,2013-02-19 10:15:00
6:47 AM,62.6,57.2,82,30.20,7.0,Calm,Calm,-,N/A,,Scattered Clouds,0,2013-02-19 11:47:00
7:47 AM,62.6,57.2,82,30.21,10.0,Calm,Calm,-,N/A,,Scattered Clouds,0,2013-02-19 12:47:00
8:47 AM,-9999,-9999,N/A,30.21,10.0,South,3.5,-,N/A,,Partly Cloudy,190,2013-02-19 13:47:00
9:47 AM,73.4,53.6,50,30.21,10.0,South,11.5,-,N/A,,Partly Cloudy,170,2013-02-19 14:47:00
10:47 AM,75.2,51.8,44,30.21,10.0,SSE,9.2,-,N/A,,Scattered Clouds,160,2013-02-19 15:47:00
11:47 AM,77.0,51.8,41,30.20,7.0,South,9.2,-,N/A,,Mostly Cloudy,180,2013-02-19 16:47:00
12:47 PM,78.8,51.8,39,30.17,7.0,South,8.1,-,N/A,,Mostly Cloudy,170,2013-02-19 17:47:00
2:47 PM,78.8,53.6,42,30.11,10.0,SW,6.9,-,N/A,,Mostly Cloudy,230,2013-02-19 19:47:00
4:47 PM,78.8,55.4,44,30.09,7.0,SW,8.1,-,N/A,,Scattered Clouds,220,2013-02-19 21:47:00
5:47 PM,75.2,62.6,65,30.10,7.0,SSE,9.2,-,N/A,,Scattered Clouds,150,2013-02-19 22:47:00
7:35 PM,69.8,64.4,83,30.13,10.0,Calm,Calm,-,0.08,Rain,Light Rain,0,2013-02-20 00:35:00
8:35 PM,69.8,66.2,88,30.13,10.0,SSW,5.8,-,N/A,,Overcast,200,2013-02-20 01:35:00
8:55 PM,69.8,64.4,83,30.13,10.0,SSW,4.6,-,N/A,,Overcast,210,2013-02-20 01:55:00
9:15 PM,69.8,64.4,83,30.13,10.0,SSW,3.5,-,N/A,,Overcast,200,2013-02-20 02:15:00
9:35 PM,68.0,64.4,88,30.14,10.0,SW,3.5,-,N/A,,Scattered Clouds,230,2013-02-20 02:35:00
9:55 PM,68.0,64.4,88,30.14,10.0,SSW,3.5,-,N/A,,Mostly Cloudy,210,2013-02-20 02:55:00
10:15 PM,68.0,64.4,88,30.15,10.0,SW,3.5,-,N/A,,Overcast,220,2013-02-20 03:15:00
10:35 PM,68.0,64.4,88,30.15,10.0,Calm,Calm,-,N/A,,Overcast,0,2013-02-20 03:35:00
10:55 PM,68.0,64.4,88,30.14,10.0,WSW,3.5,-,N/A,,Overcast,240,2013-02-20 03:55:00
11:15 PM,68.0,64.4,88,30.13,10.0,SW,3.5,-,N/A,,Overcast,220,2013-02-20 04:15:00
11:35 PM,68.0,64.4,88,30.13,10.0,WSW,4.6,-,N/A,,Mostly Cloudy,250,2013-02-20 04:35:00
11:55 PM,68.0,64.4,88,30.12,10.0,SW,3.5,-,N/A,,Mostly Cloudy,230,2013-02-20 04:55:00